Regional Weather Roundup
Issued by NWS Green Bay, WI

Home | Current Version | Previous Version | Graphics & Text | Print | Product List | Glossary Off
Versions: 1 2 3 4 5 6 7 8 9 10 11 12 13 14 15 16 17 18 19 20 21 22 23 24 25 26 27 28 29 30 31 32 33 34 35 36 37 38 39 40 41 42 43 44 45 46 47 48 49 50

000
ASUS43 KGRB 060511
RWRGRB

NORTH-CENTRAL AND NORTHEAST WISCONSIN REGIONAL WEATHER ROUNDUP
NATIONAL WEATHER SERVICE GREEN BAY WI
1100 PM CST FRI FEB 05 2016

WIZ005-009-010>012-018-019-060600-
NORTH CENTRAL WISCONSIN

CITY           SKY/WX    TMP DP  RH WIND       PRES   REMARKS
IRONWOOD       CLOUDY    23  16  74 SW14      30.07S
MANITOWISH WTR LGT SNOW  20  15  81 SW9       30.08F WCI   9
ARBOR VITAE    FLURRIES  22  15  75 SW7       30.09F
EAGLE RIVER    FLURRIES  21  12  68 SW12G18   30.08F WCI   9
LAND O LAKES   LGT SNOW  22  14  72 W7        30.08S
RHINELANDER    CLOUDY    20  13  74 SW12      30.10F WCI   8
PHILLIPS       FLURRIES  20  15  81 SW8G18    30.11F
ANTIGO         CLOUDY    21  13  73 SW10      30.15F WCI   9
TOMAHAWK       FLURRIES  20  14  78 CALM      30.14F
MERRILL        LGT SNOW  21  16  79 SW8       30.17F
$$

WIZ013-073-060600-
NORTHEAST WISCONSIN

CITY           SKY/WX    TMP DP  RH WIND       PRES   REMARKS
IRON MOUNTAIN  CLOUDY    24  10  55 SW7       30.10F
MARINETTE      CLOUDY    21  14  73 SW7       30.20S
OCONTO         CLOUDY    22  17  83 SW6       30.21F
$$

WIZ017-030-035>037-045-060600-
CENTRAL WISCONSIN

CITY           SKY/WX    TMP DP  RH WIND       PRES   REMARKS
MEDFORD        FLURRIES  20  15  82 SW9       30.15F WCI   9
WAUSAU         FLURRIES  23  13  65 SW8       30.17F
MOSINEE        CLOUDY    21  16  79 CALM      30.21S
MARSHFIELD     CLOUDY    22  13  68 SW10      30.18F
WISC RAPIDS    FLURRIES  23  16  74 SW7       30.23F
STEVENS POINT  CLOUDY    21  15  76 SW8       30.21F
WAUPACA        CLOUDY    26  19  73 SW6       30.23F
SHAWANO        CLOUDY    25  18  73 SW5       30.21F
CLINTONVILLE   CLOUDY    23  18  80 SW6       30.22F
WAUTOMA        CLOUDY    24  18  78 SW7       30.24F
$$

WIZ038-039-048-051-060600-
FOX VALLEY

CITY           SKY/WX    TMP DP  RH WIND       PRES   REMARKS
NWS GREEN BAY  CLOUDY    22  17  81 SW3       30.23F
APPLETON       CLOUDY    23  18  80 S8        30.21F
OSHKOSH        CLOUDY    24  15  68 SW8       30.23F
FOND DU LAC    CLOUDY    25  16  68 SW7       30.24F
$$

WIZ022-050-052-060600-
EAST CENTRAL WISCONSIN

CITY           SKY/WX    TMP DP  RH WIND       PRES   REMARKS
EPHRAIM        CLOUDY    25  18  74 SW12G20   30.18F
STURGEON BAY   CLOUDY    23  14  68 SW12      30.23F
MANITOWOC      CLOUDY    26  18  71 SW6       30.24F
SHEBOYGAN        N/A     24  16  71 SW8       30.24F
$$

LMZ563-521-522-541>543-060600-
LAKESHORE

STATION/POSITION TIME  TEMP    WIND        PRES    VSBY  WAVE
                       AIR SEA DIR/SP/G                  HT/PER
                 (UTC) (F)     (DEG/KT/KT) (MB)    (MI)  (FT/S)
SHEBOYGAN LKSHOR 0500   27     230/ 10/ 12 1025.3F
KEWAUNEE LKSHORE 0400   24     280/  7/ 11 1023.3F
ALGOMA MARINA    0411          240/  8/ 10   N/A
CHAMBERS ISLAND  0400   22     190/  8/ 12 1023.0F
MENOMINEE LKSHOR 0400   23     210/ 10     1021.9F
$$



USA.gov is the U.S. government's official web portal to all federal, state and local government web resources and services.